Location: Menands
(42.6920°N, 73.7246°W)
Time: 03:23:03
(UTC+00:00)

Cosmos 2263 Rocket - Pass Details

Date: 18 February 2026
Orbit: 821 x 848 km, 71.0° (Epoch: 8 March)

Event Time Altitude Azimuth Distance (km) Brightness Sun altitude
Rises 23:43:04 0° 210° (SSW) 3,388 5.8 -13.9°
Reaches altitude 10° 23:45:31 10° 213° (SSW) 2,459 5.1 -14.4°
Maximum altitude 23:51:09 68° 296° (WNW) 909 2.5 -15.4°
Drops below altitude 10° 23:56:50 10° 20° (NNE) 2,481 4.4 -16.5°
Sets 23:59:19 0° 23° (NNE) 3,419 5.1 -16.9°
